Location: White Mills Observatory
(37.5374°N, 86.0303°W)
Time: 03:08:49
(UTC-04:00)

Amateur Radio Satellites - All Passes

Search period start: 25 September 2016 02:38
Search period end: 26 September 2016 02:38
Location: White Mills Observatory, 37.5374°N, 86.0303°W

Satellite Date Start Highest point End Downlink Frequencies (MHz)
Time Altitude Azimuth
BEESAT 2 25 Sep 02:40:44 02:44:15 32° 114° (ESE) 02:47:48 435.950
SWISSCUBE 25 Sep 02:41:48 02:45:57 31° 69° (ENE) 02:50:07 437.505
POPSAT HIP 1 25 Sep 02:49:02 02:50:12 11° 296° (WNW) 02:51:20 437.405
BUGSAT 1 25 Sep 02:52:18 02:55:32 24° 290° (WNW) 02:58:46 437.445
SRMSAT 25 Sep 02:52:25 02:55:11 13° 180° (S) 02:57:56 437.500
BEESAT 25 Sep 02:54:56 02:59:18 38° 70° (ENE) 03:03:41 436.000
Cosmos 2491 25 Sep 02:56:19 03:04:48 48° 76° (ENE) 03:13:11 435.465 / 435.565
Oscar 19 25 Sep 03:10:16 03:15:27 75° 103° (ESE) 03:20:34 437.125/150
ISS 25 Sep 03:26:01 03:27:06 11° 18° (NNE) 03:28:12 145.825
BEESAT 3 25 Sep 03:29:57 03:33:26 31° 307° (NW) 03:36:58 437.485
JAS-2 25 Sep 03:36:16 03:41:22 19° 302° (WNW) 03:46:24 435.910
SO-50 25 Sep 03:39:33 03:41:36 13° 253° (WSW) 03:43:38 436.795
Gurwin Techsat 1B 25 Sep 03:40:51 03:46:10 69° 102° (ESE) 03:51:28 435.225
YUBILEINY 25 Sep 03:54:28 04:02:49 50° 89° (E) 04:11:09 435.215
ITAMSAT 1 25 Sep 03:56:36 04:00:52 25° 96° (E) 04:05:07 435.822/435.867
ITUPSAT 1 25 Sep 04:04:09 04:08:36 40° 261° (W) 04:13:06 437.325
KKS-1 25 Sep 04:05:02 04:08:22 21° 67° (ENE) 04:11:42 437.445
BEESAT 2 25 Sep 04:19:07 04:22:06 20° 310° (NW) 04:25:08 435.950
SWISSCUBE 25 Sep 04:19:52 04:23:43 25° 264° (W) 04:27:37 437.505
BEESAT 25 Sep 04:33:43 04:37:10 20° 266° (W) 04:40:38 436.000
AIST 2 25 Sep 04:35:06 04:37:58 19° 110° (ESE) 04:40:52 435.215
SRMSAT 25 Sep 04:42:11 04:43:28 11° 190° (S) 04:44:45 437.500
RS-15 25 Sep 04:47:16 04:57:53 31° 36° (NE) 05:08:20 29.354- 29.394
STARS 25 Sep 04:47:25 04:51:10 28° 70° (ENE) 04:54:55 437.465
MOZHAYETS 4 25 Sep 04:50:44 04:55:17 80° 258° (WSW) 04:59:53
Oscar 19 25 Sep 04:51:55 04:54:05 13° 299° (WNW) 04:56:15 437.125/150
Cosmos 2491 25 Sep 04:53:37 05:01:18 35° 275° (W) 05:08:56 435.465 / 435.565
Cosmos 2504 25 Sep 04:58:37 05:05:44 47° 90° (E) 05:12:32 435.465 / 435.565
ISS 25 Sep 05:01:02 05:04:14 48° 36° (NE) 05:07:26 145.825
AO-7 25 Sep 05:12:18 05:20:28 59° 103° (ESE) 05:28:35 29.400- 29.500
Gurwin Techsat 1B 25 Sep 05:22:40 05:25:30 15° 298° (WNW) 05:28:19 435.225
PCSat 25 Sep 05:32:53 05:37:52 39° 110° (ESE) 05:42:53 145.827
ITAMSAT 1 25 Sep 05:35:37 05:40:21 36° 291° (WNW) 05:45:04 435.822/435.867
KKS-1 25 Sep 05:40:42 05:44:42 32° 262° (W) 05:48:43 437.445
YUBILEINY 25 Sep 05:52:07 05:59:49 33° 288° (WNW) 06:07:33 435.215
CUBESAT XI-V 25 Sep 06:01:24 06:06:03 73° 76° (ENE) 06:10:46 437.345
AIST 2 25 Sep 06:12:25 06:16:10 35° 306° (NW) 06:20:00 435.215
AIST 1 25 Sep 06:17:33 06:21:41 41° 92° (E) 06:25:47
STARS 25 Sep 06:24:00 06:27:29 23° 264° (W) 06:30:58 437.465
ISS 25 Sep 06:38:29 06:40:26 15° 231° (SW) 06:42:22 145.825
CUSAT 1 25 Sep 06:48:10 06:55:15 35° 70° (ENE) 07:01:25 437.405
Cosmos 2504 25 Sep 06:52:58 06:59:14 28° 287° (WNW) 07:05:19 435.465 / 435.565
HORYU 2 25 Sep 06:53:25 06:57:52 77° 102° (ESE) 07:02:19 437.375
RS-15 25 Sep 06:59:42 07:12:09 89° 245° (WSW) 07:24:15 29.354- 29.394
AO-7 25 Sep 07:05:50 07:12:44 31° 301° (WNW) 07:19:38 29.400- 29.500
NOAA 15 25 Sep 07:06:04 07:10:26 26° 96° (E) 07:14:46 137.62
Cubesat XI-IV 25 Sep 07:10:40 07:14:50 23° 95° (E) 07:19:00 437.490
CUTE-I 25 Sep 07:11:48 07:16:04 24° 95° (E) 07:20:20 437.470
PCSat 25 Sep 07:16:45 07:21:20 28° 307° (NW) 07:25:57 145.827
BRITE-PL 25 Sep 07:18:31 07:23:27 78° 102° (ESE) 07:27:56 437.365/2234.400
STRAND 1 25 Sep 07:24:15 07:28:28 27° 67° (ENE) 07:32:42 437.568
GOMX 1 25 Sep 07:24:44 07:28:47 33° 97° (E) 07:32:36 467.674
NOAA 18 25 Sep 07:25:34 07:30:03 25° 96° (E) 07:34:30 137.9125
AO-85 25 Sep 07:38:12 07:42:12 46° 56° (NE) 07:45:57 145.980
DANDE 25 Sep 07:46:35 07:54:33 46° 74° (ENE) 08:02:09 436.750
LilacSat-2 25 Sep 07:48:35 07:52:23 60° 101° (E) 07:56:10 437.200
O/OREOS (USA 219) 25 Sep 07:49:30 07:52:20 16° 99° (E) 07:55:11 437.305
AIST 1 25 Sep 07:56:54 07:59:27 15° 288° (WNW) 08:02:00
DOVE 4 25 Sep 08:02:16 08:06:07 34° 97° (E) 08:09:54 437.250
GONETS M04 25 Sep 08:20:55 08:25:20 15° 77° (ENE) 08:29:45
CUSAT 1 25 Sep 08:30:06 08:37:21 43° 271° (W) 08:43:34 437.405
NOAA 15 25 Sep 08:45:25 08:50:14 36° 291° (WNW) 08:55:00 137.62
Cubesat XI-IV 25 Sep 08:50:02 08:55:01 41° 290° (WNW) 08:59:59 437.490
CUTE-I 25 Sep 08:51:15 08:56:11 39° 290° (WNW) 09:01:08 437.470
PRISM 25 Sep 08:52:32 08:55:18 18° 67° (ENE) 08:58:05 437.425
COMPASS 1 25 Sep 08:57:58 08:59:23 11° 91° (E) 09:00:49 437.405
BRITE-PL 25 Sep 09:00:12 09:01:04 10° 300° (WNW) 09:01:55 437.365/2234.400
STRAND 1 25 Sep 09:02:56 09:07:29 32° 263° (W) 09:12:03 437.568
GOMX 1 25 Sep 09:03:29 09:06:35 19° 294° (WNW) 09:09:35 467.674
NOAA 18 25 Sep 09:05:45 09:10:46 38° 291° (WNW) 09:15:46 137.9125
CUTE 1.7 + AOD 2 25 Sep 09:11:02 09:15:03 37° 98° (E) 09:19:02 437.475
CANX-2 25 Sep 09:11:33 09:15:41 44° 99° (E) 09:19:48 2200.000
RS-15 25 Sep 09:14:39 09:22:52 21° 261° (W) 09:30:59 29.354- 29.394
SEEDS 25 Sep 09:18:30 09:22:19 31° 97° (E) 09:26:05 437.485
AO-85 25 Sep 09:20:29 09:22:04 12° 253° (WSW) 09:23:38 145.980
O/OREOS (USA 219) 25 Sep 09:27:02 09:31:21 41° 295° (WNW) 09:35:42 437.305
CUBEBUG 2 25 Sep 09:29:12 09:32:29 21° 95° (E) 09:35:50 437.445
DANDE 25 Sep 09:29:36 09:37:09 39° 272° (W) 09:44:21 436.750
HO-68 25 Sep 09:30:27 09:37:33 62° 103° (ESE) 09:44:36 435.675
CINEMA 3 25 Sep 09:36:47 09:40:56 75° 284° (WNW) 09:45:09 145.822/145.860
DOVE 4 25 Sep 09:40:51 09:43:32 17° 293° (WNW) 09:46:12 437.250
AAUSAT CUBESAT 2 25 Sep 09:50:05 09:54:00 37° 98° (E) 09:57:54 437.432
FUNcube-1 25 Sep 09:50:58 09:53:16 14° 93° (E) 09:55:35 145.935
UWE-3 25 Sep 09:53:38 09:57:17 26° 96° (E) 10:00:59 435.000/436.395/437.385
UNISAT 6 25 Sep 09:59:41 10:01:08 12° 64° (ENE) 10:02:33 437.425
Cosmos 2499 25 Sep 10:11:06 10:18:20 73° 94° (E) 10:25:22 435.465 / 435.565
GONETS M04 25 Sep 10:11:53 10:20:44 86° 95° (E) 10:29:38
PRISM 25 Sep 10:26:30 10:30:19 35° 262° (W) 10:34:09 437.425
ZACube-1 25 Sep 10:29:42 10:33:48 43° 99° (E) 10:37:59 437.345
COMPASS 1 25 Sep 10:31:07 10:35:13 51° 286° (WNW) 10:39:18 437.405
ANTELSAT 25 Sep 10:32:47 10:36:23 27° 70° (ENE) 10:39:58 437.575/2403.000
Oscar 11 25 Sep 10:33:42 10:37:54 46° 99° (E) 10:42:05 145.826/435.025
CUTE 1.7 + AOD 2 25 Sep 10:47:46 10:50:34 17° 293° (WNW) 10:53:22 437.475
CANX-2 25 Sep 10:48:44 10:51:08 15° 294° (WNW) 10:53:31 2200.000
TIGRISAT 25 Sep 10:53:39 10:57:43 44° 73° (ENE) 11:01:45 435.000
SEEDS 25 Sep 10:54:40 10:57:46 20° 292° (WNW) 11:00:52 437.485
BEESAT 2 25 Sep 11:01:21 11:03:19 13° 46° (NE) 11:05:18 435.950
CUBEBUG 2 25 Sep 11:05:25 11:09:05 29° 289° (WNW) 11:12:49 437.445
HUMSAT D 25 Sep 11:17:14 11:20:51 27° 96° (E) 11:24:29 437.325/437.525
HO-68 25 Sep 11:19:14 11:24:42 24° 300° (WNW) 11:30:10 435.675
FUNcube-1 25 Sep 11:25:35 11:29:40 44° 286° (WNW) 11:33:51 145.935
AAUSAT CUBESAT 2 25 Sep 11:26:32 11:29:09 16° 293° (WNW) 11:31:45 437.432
UWE-3 25 Sep 11:30:11 11:33:37 24° 290° (WNW) 11:37:06 435.000/436.395/437.385
UNISAT 6 25 Sep 11:33:07 11:37:20 57° 260° (W) 11:41:33 437.425
DELFI C3 25 Sep 11:36:02 11:40:05 81° 282° (WNW) 11:44:05 145.870
BEESAT 3 25 Sep 11:48:12 11:52:11 77° 59° (ENE) 11:56:08 437.485
QB50P1 25 Sep 11:48:35 11:52:00 24° 69° (ENE) 11:55:25 145.935-145.965
DUCHIFAT 1 25 Sep 11:50:02 11:53:15 22° 69° (ENE) 11:56:29 145.980
JAS-2 25 Sep 11:59:42 12:05:14 33° 64° (ENE) 12:11:22 435.910
POPSAT HIP 1 25 Sep 12:01:23 12:05:10 33° 72° (ENE) 12:08:57 437.405
PHONESAT 2.4 25 Sep 12:05:23 12:07:32 19° 148° (SSE) 12:09:42 2401.200-2431.200
BUGSAT 1 25 Sep 12:06:11 12:08:10 13° 66° (ENE) 12:10:08 437.445
ZACube-1 25 Sep 12:07:12 12:09:45 16° 293° (WNW) 12:12:18 437.345
Cosmos 2499 25 Sep 12:07:42 12:12:07 17° 292° (WNW) 12:16:30 435.465 / 435.565
ANTELSAT 25 Sep 12:09:42 12:13:03 22° 265° (W) 12:16:25 437.575/2403.000
Oscar 11 25 Sep 12:11:11 12:13:37 15° 294° (WNW) 12:16:02 145.826/435.025
GONETS M04 25 Sep 12:12:57 12:18:40 19° 295° (WNW) 12:24:26
NANOSAT C BR1 25 Sep 12:19:29 12:23:33 52° 74° (ENE) 12:27:38 145.865
TIGRISAT 25 Sep 12:32:29 12:34:36 13° 267° (W) 12:36:45 435.000
BEESAT 2 25 Sep 12:37:33 12:41:31 60° 243° (WSW) 12:45:27 435.950
QB50P2 25 Sep 12:39:53 12:44:06 76° 257° (WSW) 12:48:20 145.880/145.840
POLYITAN 1 25 Sep 12:42:09 12:46:21 76° 258° (WSW) 12:50:34 437.675
ESTCUBE 1 25 Sep 12:44:47 12:49:03 39° 98° (E) 12:53:16 437.505/2401.250
Oscar 19 25 Sep 12:50:48 12:51:40 10° 60° (ENE) 12:52:32 437.125/150
HUMSAT D 25 Sep 12:52:59 12:56:19 23° 291° (WNW) 12:59:40 437.325/437.525
VELOX 1 25 Sep 12:57:12 13:00:49 25° 96° (E) 13:04:24 145.980
DX 1 25 Sep 12:59:50 13:02:30 16° 94° (E) 13:05:10 434.975-435.025
M-CUBED/EXP-1 PRIME 25 Sep 13:03:26 13:04:46 12° 99° (E) 13:06:07 437.505
CUBEBUG 1 25 Sep 13:08:43 13:12:53 44° 99° (E) 13:17:00 437.445
QB50P1 25 Sep 13:24:14 13:27:40 24° 264° (W) 13:31:07 145.935-145.965
Gurwin Techsat 1B 25 Sep 13:24:58 13:26:08 11° 60° (ENE) 13:27:17 435.225
DUCHIFAT 1 25 Sep 13:25:14 13:28:47 27° 263° (W) 13:32:22 145.980
POPSAT HIP 1 25 Sep 13:38:09 13:41:00 18° 266° (W) 13:43:52 437.405
BUGSAT 1 25 Sep 13:39:09 13:43:07 45° 260° (W) 13:47:05 437.445
PHONESAT 2.4 25 Sep 13:40:28 13:43:25 86° 339° (NNW) 13:46:24 2401.200-2431.200
JAS-2 25 Sep 13:44:16 13:50:03 41° 264° (W) 13:56:35 435.910
AISAT 25 Sep 13:49:01 13:53:25 77° 286° (WNW) 13:57:47 437.250
50 SAT 25 Sep 13:57:32 14:01:07 53° 286° (WNW) 14:04:41 437.505
NANOSAT C BR1 25 Sep 13:58:21 13:59:33 11° 269° (W) 14:00:46 145.865
TISAT 1 25 Sep 14:00:33 14:02:12 12° 92° (E) 14:03:51 437.305
AUBIESAT-1 25 Sep 14:01:19 14:04:36 66° 106° (ESE) 14:07:53 437.475
SPROUT 25 Sep 14:03:14 14:07:30 80° 104° (ESE) 14:11:44 437.525
YUBILEINY 25 Sep 14:07:57 14:14:17 22° 67° (ENE) 14:20:33 435.215
UKube-1 25 Sep 14:11:28 14:15:48 84° 104° (ESE) 14:20:06 .
AO-7 25 Sep 14:22:06 14:25:48 14° 49° (NE) 14:29:31 29.400- 29.500
ESTCUBE 1 25 Sep 14:22:26 14:25:32 18° 294° (WNW) 14:28:38 437.505/2401.250
PCSat 25 Sep 14:22:53 14:27:09 23° 51° (NE) 14:31:24 145.827
Oscar 19 25 Sep 14:24:58 14:30:10 88° 76° (ENE) 14:35:24 437.125/150
VELOX 1 25 Sep 14:33:31 14:37:11 26° 291° (WNW) 14:40:51 145.980
DX 1 25 Sep 14:34:47 14:38:50 39° 288° (WNW) 14:42:51 434.975-435.025
AIST 2 25 Sep 14:34:58 14:39:11 80° 59° (ENE) 14:43:23 435.215
M-CUBED/EXP-1 PRIME 25 Sep 14:36:34 14:39:24 27° 293° (WNW) 14:42:13 437.505
CUBEBUG 1 25 Sep 14:46:19 14:48:45 15° 295° (WNW) 14:51:12 437.445
Cosmos 2504 25 Sep 14:54:42 14:57:57 13° 65° (ENE) 15:01:16 435.465 / 435.565
BEESAT 25 Sep 14:59:28 15:00:39 11° 91° (E) 15:01:51 436.000
Gurwin Techsat 1B 25 Sep 14:59:56 15:05:14 88° 76° (ENE) 15:10:35 435.225
ITAMSAT 1 25 Sep 15:12:39 15:17:11 32° 68° (ENE) 15:21:44 435.822/435.867
PHONESAT 2.4 25 Sep 15:16:53 15:19:44 44° 360° (N) 15:22:36 2401.200-2431.200
TISAT 1 25 Sep 15:34:05 15:38:05 47° 287° (WNW) 15:42:04 437.305
Cosmos 2491 25 Sep 15:54:34 16:03:04 58° 91° (E) 16:11:39 435.465 / 435.565
YUBILEINY 25 Sep 16:03:15 16:11:55 75° 267° (W) 16:20:34 435.215
PCSat 25 Sep 16:05:35 16:10:47 50° 248° (WSW) 16:15:59 145.827
ITUPSAT 1 25 Sep 16:06:06 16:10:52 59° 101° (E) 16:15:36 437.325
AO-7 25 Sep 16:08:49 16:17:02 67° 68° (ENE) 16:25:15 29.400- 29.500
SO-50 25 Sep 16:09:30 16:13:43 30° 113° (ESE) 16:17:55 436.795
SWISSCUBE 25 Sep 16:20:44 16:25:34 85° 285° (WNW) 16:30:22 437.505
BEESAT 25 Sep 16:34:05 16:38:51 69° 286° (WNW) 16:43:36 436.000
Cosmos 2504 25 Sep 16:44:53 16:52:19 84° 83° (E) 17:00:16 435.465 / 435.565
MOZHAYETS 4 25 Sep 16:48:01 16:52:00 27° 96° (E) 16:55:57
ITAMSAT 1 25 Sep 16:52:13 16:56:36 28° 264° (W) 17:01:00 435.822/435.867
PHONESAT 2.4 25 Sep 16:53:05 16:56:03 78° 14° (NNE) 16:59:02 2401.200-2431.200
KKS-1 25 Sep 17:32:58 17:37:19 52° 101° (E) 17:41:36 437.445
ITUPSAT 1 25 Sep 17:45:39 17:48:10 14° 297° (WNW) 17:50:42 437.325
HORYU 2 25 Sep 17:49:19 17:53:36 54° 73° (ENE) 17:57:55 437.375
SO-50 25 Sep 17:49:52 17:54:08 30° 309° (NW) 17:58:23 436.795
Cosmos 2491 25 Sep 17:53:04 18:00:21 29° 290° (WNW) 18:07:44 435.465 / 435.565
O/OREOS (USA 219) 25 Sep 18:00:02 18:03:49 24° 61° (ENE) 18:07:33 437.305
CUBESAT XI-V 25 Sep 18:00:44 18:04:17 21° 94° (E) 18:07:49 437.345
AIST 1 25 Sep 18:03:42 18:07:59 72° 265° (W) 18:12:13
AO-7 25 Sep 18:03:50 18:10:17 25° 265° (W) 18:16:46 29.400- 29.500
YUBILEINY 25 Sep 18:04:33 18:07:04 11° 285° (WNW) 18:09:35 435.215
STARS 25 Sep 18:14:04 18:18:27 73° 103° (ESE) 18:22:47 437.465
NOAA 15 25 Sep 18:24:03 18:28:48 34° 69° (ENE) 18:33:34 137.62
MOZHAYETS 4 25 Sep 18:25:12 18:29:03 26° 291° (WNW) 18:32:54
BRITE-PL 25 Sep 18:25:36 18:31:15 73° 75° (ENE) 18:36:54 437.365/2234.400
LilacSat-2 25 Sep 18:29:14 18:32:09 22° 70° (ENE) 18:35:05 437.200
PHONESAT 2.4 25 Sep 18:29:38 18:32:00 21° 211° (SSW) 18:34:21 2401.200-2431.200
GOMX 1 25 Sep 18:29:41 18:34:36 36° 71° (ENE) 18:39:21 467.674
Cubesat XI-IV 25 Sep 18:30:40 18:35:18 32° 68° (ENE) 18:39:57 437.490
CUTE-I 25 Sep 18:31:39 18:36:20 33° 69° (ENE) 18:41:01 437.470
Cosmos 2504 25 Sep 18:40:52 18:44:46 15° 279° (W) 18:48:46 435.465 / 435.565
NOAA 18 25 Sep 18:49:46 18:54:51 41° 69° (ENE) 18:59:56 137.9125
DOVE 4 25 Sep 19:05:03 19:09:35 33° 71° (ENE) 19:13:55 437.250
KKS-1 25 Sep 19:11:13 19:13:23 14° 296° (WNW) 19:15:34 437.445
RS-15 25 Sep 19:14:54 19:20:25 15° 96° (E) 19:26:01 29.354- 29.394
HORYU 2 25 Sep 19:28:48 19:30:27 12° 268° (W) 19:32:07 437.375
CUBESAT XI-V 25 Sep 19:37:28 19:41:43 34° 289° (WNW) 19:45:55 437.345
O/OREOS (USA 219) 25 Sep 19:39:11 19:43:12 30° 257° (WSW) 19:47:09 437.305
CUSAT 1 25 Sep 19:46:44 19:51:52 33° 86° (E) 19:58:06 437.405
HO-68 25 Sep 19:57:05 20:03:33 38° 65° (ENE) 20:10:01 435.675
CUTE 1.7 + AOD 2 25 Sep 20:02:18 20:05:30 21° 69° (ENE) 20:08:43 437.475
CANX-2 25 Sep 20:02:44 20:06:10 25° 70° (ENE) 20:09:38 2200.000
LilacSat-2 25 Sep 20:03:27 20:06:21 21° 265° (W) 20:09:16 437.200
NOAA 15 25 Sep 20:04:08 20:08:33 27° 264° (W) 20:13:02 137.62
Cosmos 2499 25 Sep 20:04:13 20:09:49 22° 70° (ENE) 20:15:41 435.465 / 435.565
BRITE-PL 25 Sep 20:07:13 20:10:09 14° 270° (W) 20:13:05 437.365/2234.400
GOMX 1 25 Sep 20:08:03 20:12:38 27° 265° (W) 20:17:06 467.674
SEEDS 25 Sep 20:09:05 20:11:52 17° 67° (ENE) 20:14:41 437.485
Cubesat XI-IV 25 Sep 20:10:43 20:15:18 29° 264° (W) 20:19:55 437.490
CUTE-I 25 Sep 20:11:49 20:16:20 28° 264° (W) 20:20:53 437.470
GONETS M04 25 Sep 20:25:08 20:33:15 39° 74° (ENE) 20:41:16
CUBEBUG 2 25 Sep 20:26:41 20:28:56 14° 67° (ENE) 20:31:11 437.445
NOAA 18 25 Sep 20:31:15 20:35:36 24° 265° (W) 20:39:57 137.9125
CINEMA 3 25 Sep 20:35:59 20:40:34 77° 77° (ENE) 20:44:57 145.822/145.860
AAUSAT CUBESAT 2 25 Sep 20:38:57 20:41:58 20° 69° (ENE) 20:45:02 437.432
DOVE 4 25 Sep 20:43:02 20:47:13 25° 264° (W) 20:51:16 437.250
UWE-3 25 Sep 20:49:47 20:52:28 17° 68° (ENE) 20:55:08 435.000/436.395/437.385
DANDE 25 Sep 20:53:00 20:57:20 40° 89° (E) 21:03:03 436.750
STRAND 1 25 Sep 21:14:37 21:19:47 83° 285° (WNW) 21:24:56 437.568
RS-15 25 Sep 21:19:06 21:30:32 75° 115° (ESE) 21:42:37 29.354- 29.394
COMPASS 1 25 Sep 21:19:18 21:23:28 79° 75° (ENE) 21:27:40 437.405
ZACube-1 25 Sep 21:24:07 21:27:32 25° 70° (ENE) 21:30:56 437.345
Oscar 11 25 Sep 21:26:44 21:30:23 27° 70° (ENE) 21:34:03 145.826/435.025
CUSAT 1 25 Sep 21:28:14 21:33:41 38° 289° (WNW) 21:40:22 437.405
CUTE 1.7 + AOD 2 25 Sep 21:37:30 21:41:09 28° 264° (W) 21:44:51 437.475
CANX-2 25 Sep 21:38:29 21:41:55 24° 265° (W) 21:45:24 2200.000
ISS 25 Sep 21:39:37 21:42:42 42° 135° (SE) 21:45:49 145.825
SEEDS 25 Sep 21:43:26 21:47:17 35° 263° (W) 21:51:09 437.485
HO-68 25 Sep 21:44:36 21:51:10 39° 262° (W) 21:57:47 435.675
AO-85 25 Sep 21:49:52 21:54:25 30° 113° (ESE) 21:58:46 145.980
Cosmos 2499 25 Sep 21:55:57 22:03:24 66° 267° (W) 22:11:26 435.465 / 435.565
CUBEBUG 2 25 Sep 22:01:10 22:05:13 43° 261° (W) 22:09:12 437.445
HUMSAT D 25 Sep 22:07:51 22:10:06 15° 66° (ENE) 22:12:23 437.325/437.525
PRISM 25 Sep 22:09:44 22:13:30 33° 98° (E) 22:17:14 437.425
JUGNU 25 Sep 22:13:08 22:13:48 10° 169° (S) 22:14:27 437.505
AAUSAT CUBESAT 2 25 Sep 22:13:36 22:17:14 29° 264° (W) 22:20:54 437.432
FUNcube-1 25 Sep 22:18:50 22:22:57 75° 258° (WSW) 22:27:05 145.935
DELFI C3 25 Sep 22:19:40 22:23:25 41° 73° (ENE) 22:27:12 145.870
GONETS M04 25 Sep 22:21:57 22:30:01 42° 273° (W) 22:38:02
UWE-3 25 Sep 22:24:49 22:28:39 35° 262° (W) 22:32:28 435.000/436.395/437.385
DANDE 25 Sep 22:36:37 22:40:29 22° 295° (WNW) 22:45:15 436.750
TIGRISAT 25 Sep 22:49:21 22:50:19 11° 91° (E) 22:51:18 435.000
ZACube-1 25 Sep 23:00:30 23:03:45 22° 265° (W) 23:07:01 437.345
Oscar 11 25 Sep 23:03:05 23:06:28 22° 265° (W) 23:09:52 145.826/435.025
ISS 25 Sep 23:16:44 23:19:19 21° 332° (NNW) 23:21:55 145.825
UNISAT 6 25 Sep 23:26:32 23:30:29 32° 97° (E) 23:34:30 437.425
AO-85 25 Sep 23:30:05 23:34:48 34° 307° (NW) 23:39:17 145.980
RS-15 25 Sep 23:33:40 23:44:10 36° 320° (NW) 23:55:09 29.354- 29.394
HUMSAT D 25 Sep 23:41:32 23:45:22 39° 262° (W) 23:49:13 437.325/437.525
ESTCUBE 1 25 Sep 23:42:30 23:46:22 29° 70° (ENE) 23:50:16 437.505/2401.250
PRISM 25 Sep 23:45:46 23:48:32 18° 293° (WNW) 23:51:16 437.425
M-CUBED/EXP-1 PRIME 25 Sep 23:47:11 23:49:55 17° 64° (ENE) 23:52:32 437.505
VELOX 1 25 Sep 23:53:05 23:56:10 19° 67° (ENE) 23:59:15 145.980
DX 1 25 Sep 23:54:46 23:56:24 12° 64° (ENE) 23:58:03 434.975-435.025
DELFI C3 25 Sep 23:56:38 23:58:26 13° 268° (W) 00:00:15 145.870
JUGNU 25 Sep 23:59:14 00:01:56 13° 180° (S) 00:04:37 437.505
ANTELSAT 26 Sep 00:01:41 00:06:06 82° 102° (ESE) 00:10:36 437.575/2403.000
CUBEBUG 1 26 Sep 00:02:45 00:06:35 30° 71° (ENE) 00:10:26 437.445
TIGRISAT 26 Sep 00:23:00 00:27:20 60° 285° (WNW) 00:31:44 435.000
QB50P2 26 Sep 00:27:30 00:30:35 19° 95° (E) 00:33:39 145.880/145.840
POLYITAN 1 26 Sep 00:29:44 00:32:49 20° 94° (E) 00:35:54 437.675
50 SAT 26 Sep 00:32:02 00:35:28 43° 74° (ENE) 00:38:56 437.505
SO-50 26 Sep 00:43:10 00:46:17 18° 46° (NE) 00:49:21 436.795
AISAT 26 Sep 00:43:58 00:48:24 72° 75° (ENE) 00:52:51 437.250
AUBIESAT-1 26 Sep 00:44:45 00:48:53 63° 71° (ENE) 00:52:45 437.475
SRMSAT 26 Sep 00:52:17 00:53:54 11° 171° (S) 00:55:29 437.500
SPROUT 26 Sep 00:54:35 00:58:39 45° 73° (ENE) 01:02:44 437.525
JAS-2 26 Sep 00:55:04 01:02:19 39° 95° (E) 01:09:13 435.910
UNISAT 6 26 Sep 01:03:42 01:06:59 21° 292° (WNW) 01:10:19 437.425
UKube-1 26 Sep 01:03:45 01:07:58 54° 73° (ENE) 01:12:12 .
QB50P1 26 Sep 01:09:51 01:13:59 59° 100° (E) 01:18:08 145.935-145.965
DUCHIFAT 1 26 Sep 01:10:24 01:14:29 51° 100° (E) 01:18:34 145.980
ESTCUBE 1 26 Sep 01:19:29 01:23:08 24° 265° (W) 01:26:49 437.505/2401.250
M-CUBED/EXP-1 PRIME 26 Sep 01:20:13 01:24:12 37° 256° (WSW) 01:27:57 437.505
BUGSAT 1 26 Sep 01:23:01 01:26:26 26° 96° (E) 01:29:49 437.445
POPSAT HIP 1 26 Sep 01:23:05 01:27:18 84° 100° (E) 01:31:31 437.405
DX 1 26 Sep 01:27:44 01:32:03 60° 259° (WSW) 01:36:24 434.975-435.025
VELOX 1 26 Sep 01:28:12 01:32:20 37° 262° (W) 01:36:29 145.980
BEESAT 3 26 Sep 01:37:38 01:40:28 20° 111° (ESE) 01:43:20 437.485
CUBEBUG 1 26 Sep 01:39:25 01:42:51 22° 265° (W) 01:46:18 437.445
NANOSAT C BR1 26 Sep 01:41:09 01:45:17 61° 285° (WNW) 01:49:26 145.865
JUGNU 26 Sep 01:48:53 01:50:03 11° 190° (S) 01:51:14 437.505
RS-15 26 Sep 01:54:36 02:02:02 17° 354° (N) 02:09:34 29.354- 29.394
QB50P2 26 Sep 02:02:42 02:06:23 30° 289° (WNW) 02:10:06 145.880/145.840
BEESAT 26 Sep 02:04:32 02:05:54 11° 62° (ENE) 02:07:17 436.000
POLYITAN 1 26 Sep 02:04:56 02:08:38 30° 289° (WNW) 02:12:19 437.675
Cosmos 2491 26 Sep 02:08:05 02:15:10 26° 69° (ENE) 02:22:10 435.465 / 435.565
SO-50 26 Sep 02:22:39 02:27:05 53° 243° (WSW) 02:31:24 436.795
TISAT 1 26 Sep 02:23:10 02:27:22 87° 260° (W) 02:31:35 437.305
BEESAT 2 26 Sep 02:27:28 02:31:03 35° 114° (ESE) 02:34:41 435.950
SPROUT 26 Sep 02:32:43 02:34:48 13° 268° (W) 02:36:53 437.525
